Weather in Ulekchin

Russia / Republic of Buryatia     50°28′51″N   104°17′20″E
temp.,
°C
wind,
m/s
gust,
m/s
humid.,
%
clouds,
%
prec.,
mm/h
press.,
hPa
HPBL,
m
8 august, mon
mon823:00+9nne22805 0.0 101327
02:00+7nne11870 0.0 101414
05:00+6nnw11915 0.0 101411
08:00+11sw11701 0.0 1013213
11:00+18ssw12565 0.1 1011720
14:00+23sw24393 0.2 10081654
17:00+25ssw233079 0.0 10062145
20:00+17ene356566 0.0 1009142
9 august, tue
tue923:00+13ne127695 0.1 101217
02:00+12n1182100 0.5 101211
05:00+11nw119397 1.0 101211
08:00+13w009097 1.3 1012138
11:00+18se1169100 0.1 1010518
14:00+21e1255100 0.6 1008953
17:00+19ene1277100 3.1 100785
20:00+15ne219096 5.2 100818
10 august, wed
wed1023:00+13nnw1197100 2.9 101016
02:00+12nw1196100 3.0 100912
05:00+10nw119670 0.1 100913
08:00+13wnw019221 0.1 1009192
11:00+19s216590 0.0 1007872
14:00+20s0161100 0.2 1005769
17:00+19nne228083 3.7 1005340
20:00+14ne229213 6.7 100845
11 august, thu
thu1123:00+11n22932 0.0 101021
02:00+9wnw1192100 0.0 101112
05:00+9nw119290 0.0 101111
08:00+12wsw1188100 0.0 101097
11:00+16sw1170100 0.0 1009394
14:00+18sw2367100 0.3 1007580
17:00+21w1352100 0.3 10061232
20:00+16nw117285 0.4 100711
12 august, fri
fri1223:00+12nw118713 0.0 100918
02:00+10nnw11911 0.0 101017
05:00+9wnw119443 0.0 101011
08:00+12wsw0185100 0.0 101085
11:00+15ese0180100 0.3 1010315
14:00+17ene11739 1.3 1008560
17:00+20e115999 0.6 1007883
20:00+15ene1187100 3.4 100811